TimeEST,TemperatureF,Dew PointF,Humidity,Sea Level PressureIn,VisibilityMPH,Wind Direction,Wind SpeedMPH,Gust SpeedMPH,PrecipitationIn,Events,Conditions,WindDirDegrees,DateUTC
12:53 AM,73.9,55.0,52,30.20,10.0,ENE,8.1,-,N/A,,Mostly Cloudy,70,2012-11-11 05:53:00
1:53 AM,73.9,59.0,59,30.18,10.0,East,11.5,-,N/A,,Mostly Cloudy,80,2012-11-11 06:53:00
2:53 AM,73.0,55.9,55,30.17,10.0,East,13.8,-,N/A,,Mostly Cloudy,80,2012-11-11 07:53:00
3:53 AM,71.1,55.0,57,30.17,10.0,East,8.1,-,N/A,,Scattered Clouds,80,2012-11-11 08:53:00
4:53 AM,73.9,55.9,53,30.18,10.0,East,9.2,16.1,N/A,,Mostly Cloudy,80,2012-11-11 09:53:00
5:53 AM,73.9,57.0,55,30.19,10.0,East,9.2,-,N/A,,Mostly Cloudy,80,2012-11-11 10:53:00
6:53 AM,73.9,59.0,59,30.20,10.0,East,8.1,-,N/A,,Scattered Clouds,80,2012-11-11 11:53:00
7:53 AM,75.0,57.0,53,30.22,10.0,East,12.7,19.6,N/A,,Scattered Clouds,90,2012-11-11 12:53:00
8:53 AM,79.0,57.0,47,30.23,10.0,East,19.6,26.5,N/A,,Scattered Clouds,80,2012-11-11 13:53:00
9:53 AM,79.0,55.9,45,30.24,10.0,East,17.3,24.2,N/A,,Scattered Clouds,80,2012-11-11 14:53:00
10:53 AM,81.0,57.9,45,30.23,10.0,East,18.4,26.5,N/A,,Scattered Clouds,90,2012-11-11 15:53:00
11:53 AM,79.0,60.1,52,30.22,10.0,East,18.4,27.6,N/A,,Mostly Cloudy,80,2012-11-11 16:53:00
12:53 PM,80.1,57.9,47,30.20,10.0,East,17.3,26.5,N/A,,Mostly Cloudy,80,2012-11-11 17:53:00
1:53 PM,81.0,57.9,45,30.19,10.0,ENE,17.3,23.0,N/A,,Mostly Cloudy,70,2012-11-11 18:53:00
2:53 PM,80.1,57.9,47,30.18,10.0,East,20.7,25.3,N/A,,Scattered Clouds,80,2012-11-11 19:53:00
3:53 PM,78.1,59.0,52,30.18,10.0,ENE,13.8,21.9,0.00,,Scattered Clouds,70,2012-11-11 20:53:00
4:53 PM,78.1,57.9,50,30.18,10.0,ENE,9.2,23.0,N/A,,Scattered Clouds,70,2012-11-11 21:53:00
5:53 PM,77.0,57.0,50,30.19,10.0,ENE,10.4,19.6,N/A,,Scattered Clouds,70,2012-11-11 22:53:00
6:53 PM,75.9,59.0,56,30.19,10.0,ENE,11.5,-,N/A,,Scattered Clouds,60,2012-11-11 23:53:00
7:53 PM,75.2,60.8,61,30.21,10.0,ENE,12.7,21.9,N/A,,Scattered Clouds,70,2012-11-12 00:53:00
8:53 PM,75.9,60.1,58,30.20,10.0,East,11.5,-,N/A,,Scattered Clouds,80,2012-11-12 01:53:00
9:53 PM,73.9,64.9,73,30.21,10.0,East,4.6,-,0.00,Rain,Light Rain,80,2012-11-12 02:53:00
10:53 PM,73.0,64.9,76,30.21,10.0,East,16.1,-,0.02,,Scattered Clouds,100,2012-11-12 03:53:00
11:53 PM,75.0,64.0,69,30.19,10.0,East,13.8,-,N/A,,Scattered Clouds,100,2012-11-12 04:53:00